![]() |
EMODnet Physics ERDDAP
Easier access to scientific data |
log in|
Brought to you by EMODnet Physics |
| Dataset Title: | NDBC - Collection of dew point temperature (DEWT) TimeSeries - IN SITU MultiPointTimeSeriesObservation
|
| Institution: | NDBC (Dataset ID: TS_DEWT_NDBC) |
| Information: | Summary
| License
| FGDC
| ISO 19115
| Metadata
| Background
| Subset
| Data Access Form
| Make a graph
|
| Name | Last modified | Size | Description | |
|---|---|---|---|---|
| Parent Directory | - | - | ||
| BLTA2_TS_DEWT_012008.nc | 05-Nov-2024 20:47 | 1268215 | ||
| BLTA2_TS_DEWT_012009.nc | 05-Nov-2024 21:08 | 1266626 | ||
| BLTA2_TS_DEWT_012010.nc | 05-Nov-2024 21:31 | 433032 | ||
| BLTA2_TS_DEWT_012011.nc | 05-Nov-2024 22:04 | 1114577 | ||
| BLTA2_TS_DEWT_012012.nc | 05-Nov-2024 22:29 | 1267947 | ||
| BLTA2_TS_DEWT_012013.nc | 05-Nov-2024 22:50 | 1263294 | ||
| BLTA2_TS_DEWT_012014.nc | 05-Nov-2024 23:08 | 1266993 | ||
| BLTA2_TS_DEWT_012018.nc | 05-Nov-2024 23:55 | 4125845 | ||
| BLTA2_TS_DEWT_012019.nc | 06-Nov-2024 00:25 | 2840232 | ||
| BLTA2_TS_DEWT_012020.nc | 06-Nov-2024 00:56 | 423475 | ||
| BLTA2_TS_DEWT_012021.nc | 06-Nov-2024 01:28 | 428332 | ||
| BLTA2_TS_DEWT_012022.nc | 06-Nov-2024 02:16 | 428424 | ||
| BLTA2_TS_DEWT_012023.nc | 06-Nov-2024 03:03 | 429605 | ||
| BLTA2_TS_DEWT_022008.nc | 05-Nov-2024 20:49 | 428002 | ||
| BLTA2_TS_DEWT_022009.nc | 05-Nov-2024 21:09 | 429144 | ||
| BLTA2_TS_DEWT_022010.nc | 05-Nov-2024 21:33 | 598570 | ||
| BLTA2_TS_DEWT_022011.nc | 05-Nov-2024 22:06 | 600344 | ||
| BLTA2_TS_DEWT_022012.nc | 05-Nov-2024 22:32 | 605927 | ||
| BLTA2_TS_DEWT_022014.nc | 05-Nov-2024 23:11 | 1028612 | ||
| BLTA2_TS_DEWT_022017.nc | 05-Nov-2024 23:31 | 1009325 | ||
| BLTA2_TS_DEWT_022018.nc | 05-Nov-2024 23:56 | 1031430 | ||
| BLTA2_TS_DEWT_022019.nc | 06-Nov-2024 00:28 | 1022757 | ||
| BLTA2_TS_DEWT_022020.nc | 06-Nov-2024 00:59 | 1106501 | ||
| BLTA2_TS_DEWT_022021.nc | 06-Nov-2024 01:31 | 1030332 | ||
| BLTA2_TS_DEWT_022022.nc | 06-Nov-2024 02:20 | 1029349 | ||
| BLTA2_TS_DEWT_022023.nc | 06-Nov-2024 03:06 | 1029305 | ||
| BLTA2_TS_DEWT_032008.nc | 05-Nov-2024 20:50 | 3312655 | ||
| BLTA2_TS_DEWT_032009.nc | 05-Nov-2024 21:11 | 4732963 | ||
| BLTA2_TS_DEWT_032010.nc | 05-Nov-2024 21:36 | 428767 | ||
| BLTA2_TS_DEWT_032011.nc | 05-Nov-2024 22:09 | 419372 | ||
| BLTA2_TS_DEWT_032012.nc | 05-Nov-2024 22:35 | 428907 | ||
| BLTA2_TS_DEWT_032013.nc | 05-Nov-2024 22:52 | 429510 | ||
| BLTA2_TS_DEWT_032014.nc | 05-Nov-2024 23:13 | 431425 | ||
| BLTA2_TS_DEWT_032017.nc | 05-Nov-2024 23:33 | 429617 | ||
| BLTA2_TS_DEWT_032018.nc | 05-Nov-2024 23:58 | 429856 | ||
| BLTA2_TS_DEWT_032019.nc | 06-Nov-2024 00:31 | 607620 | ||
| BLTA2_TS_DEWT_032020.nc | 06-Nov-2024 01:02 | 606269 | ||
| BLTA2_TS_DEWT_032021.nc | 06-Nov-2024 01:34 | 608914 | ||
| BLTA2_TS_DEWT_032022.nc | 06-Nov-2024 02:25 | 1264090 | ||
| BLTA2_TS_DEWT_032023.nc | 06-Nov-2024 03:10 | 1263822 | ||
| BLTA2_TS_DEWT_042008.nc | 05-Nov-2024 20:51 | 1114667 | ||
| BLTA2_TS_DEWT_042009.nc | 05-Nov-2024 21:12 | 1114732 | ||
| BLTA2_TS_DEWT_042010.nc | 05-Nov-2024 21:39 | 1264864 | ||
| BLTA2_TS_DEWT_042011.nc | 05-Nov-2024 22:11 | 997533 | ||
| BLTA2_TS_DEWT_042012.nc | 05-Nov-2024 22:37 | 1265440 | ||
| BLTA2_TS_DEWT_042013.nc | 05-Nov-2024 22:53 | 1266540 | ||
| BLTA2_TS_DEWT_042014.nc | 05-Nov-2024 23:16 | 3870644 | ||
| BLTA2_TS_DEWT_042017.nc | 05-Nov-2024 23:34 | 3557589 | ||
| BLTA2_TS_DEWT_042018.nc | 06-Nov-2024 00:01 | 428462 | ||
| BLTA2_TS_DEWT_042019.nc | 06-Nov-2024 00:34 | 421369 | ||
| BLTA2_TS_DEWT_042020.nc | 06-Nov-2024 01:04 | 428850 | ||
| BLTA2_TS_DEWT_042021.nc | 06-Nov-2024 01:37 | 428812 | ||
| BLTA2_TS_DEWT_042022.nc | 06-Nov-2024 02:28 | 429748 | ||
| BLTA2_TS_DEWT_042023.nc | 06-Nov-2024 03:14 | 429630 | ||
| BLTA2_TS_DEWT_052008.nc | 05-Nov-2024 20:53 | 429521 | ||
| BLTA2_TS_DEWT_052009.nc | 05-Nov-2024 21:13 | 607129 | ||
| BLTA2_TS_DEWT_052010.nc | 05-Nov-2024 21:41 | 608754 | ||
| BLTA2_TS_DEWT_052011.nc | 05-Nov-2024 22:12 | 608638 | ||
| BLTA2_TS_DEWT_052012.nc | 05-Nov-2024 22:39 | 1112822 | ||
| BLTA2_TS_DEWT_052013.nc | 05-Nov-2024 22:54 | 1025918 | ||
| BLTA2_TS_DEWT_052014.nc | 05-Nov-2024 23:18 | 1109755 | ||
| BLTA2_TS_DEWT_052017.nc | 05-Nov-2024 23:36 | 1117435 | ||
| BLTA2_TS_DEWT_052018.nc | 06-Nov-2024 00:03 | 1113484 | ||
| BLTA2_TS_DEWT_052019.nc | 06-Nov-2024 00:36 | 1114319 | ||
| BLTA2_TS_DEWT_052020.nc | 06-Nov-2024 01:08 | 1113444 | ||
| BLTA2_TS_DEWT_052021.nc | 06-Nov-2024 01:41 | 1030990 | ||
| BLTA2_TS_DEWT_052022.nc | 06-Nov-2024 02:32 | 4672592 | ||
| BLTA2_TS_DEWT_052023.nc | 06-Nov-2024 03:19 | 429541 | ||
| BLTA2_TS_DEWT_062008.nc | 05-Nov-2024 20:54 | 418943 | ||
| BLTA2_TS_DEWT_062009.nc | 05-Nov-2024 21:15 | 428266 | ||
| BLTA2_TS_DEWT_062010.nc | 05-Nov-2024 21:43 | 429419 | ||
| BLTA2_TS_DEWT_062011.nc | 05-Nov-2024 22:14 | 429823 | ||
| BLTA2_TS_DEWT_062012.nc | 05-Nov-2024 22:41 | 429829 | ||
| BLTA2_TS_DEWT_062013.nc | 05-Nov-2024 22:56 | 429928 | ||
| BLTA2_TS_DEWT_062017.nc | 05-Nov-2024 23:39 | 608425 | ||
| BLTA2_TS_DEWT_062018.nc | 06-Nov-2024 00:06 | 902396 | ||
| BLTA2_TS_DEWT_062019.nc | 06-Nov-2024 00:38 | 902879 | ||
| BLTA2_TS_DEWT_062020.nc | 06-Nov-2024 01:09 | 1265073 | ||
| BLTA2_TS_DEWT_062021.nc | 06-Nov-2024 01:46 | 1263355 | ||
| BLTA2_TS_DEWT_062022.nc | 06-Nov-2024 02:37 | 1262445 | ||
| BLTA2_TS_DEWT_062023.nc | 06-Nov-2024 03:23 | 1244351 | ||
| BLTA2_TS_DEWT_072008.nc | 05-Nov-2024 20:56 | 1268480 | ||
| BLTA2_TS_DEWT_072009.nc | 05-Nov-2024 21:17 | 1270508 | ||
| BLTA2_TS_DEWT_072010.nc | 05-Nov-2024 21:46 | 1267035 | ||
| BLTA2_TS_DEWT_072011.nc | 05-Nov-2024 22:15 | 1263946 | ||
| BLTA2_TS_DEWT_072012.nc | 05-Nov-2024 22:42 | 5360888 | ||
| BLTA2_TS_DEWT_072013.nc | 05-Nov-2024 22:57 | 429050 | ||
| BLTA2_TS_DEWT_072014.nc | 05-Nov-2024 23:21 | 420960 | ||
| BLTA2_TS_DEWT_072017.nc | 05-Nov-2024 23:41 | 428118 | ||
| BLTA2_TS_DEWT_072018.nc | 06-Nov-2024 00:09 | 429319 | ||
| BLTA2_TS_DEWT_072019.nc | 06-Nov-2024 00:40 | 429023 | ||
| BLTA2_TS_DEWT_072020.nc | 06-Nov-2024 01:12 | 429184 | ||
| BLTA2_TS_DEWT_072021.nc | 06-Nov-2024 01:49 | 429533 | ||
| BLTA2_TS_DEWT_072022.nc | 06-Nov-2024 02:42 | 429317 | ||
| BLTA2_TS_DEWT_072023.nc | 06-Nov-2024 03:27 | 607517 | ||
| BLTA2_TS_DEWT_082008.nc | 05-Nov-2024 20:59 | 608587 | ||
| BLTA2_TS_DEWT_082009.nc | 05-Nov-2024 21:18 | 608443 | ||
| BLTA2_TS_DEWT_082010.nc | 05-Nov-2024 21:49 | 1110949 | ||
| BLTA2_TS_DEWT_082011.nc | 05-Nov-2024 22:18 | 1102246 | ||
| BLTA2_TS_DEWT_082012.nc | 05-Nov-2024 22:43 | 1110428 | ||
| BLTA2_TS_DEWT_082013.nc | 05-Nov-2024 22:59 | 1068231 | ||
| BLTA2_TS_DEWT_082014.nc | 05-Nov-2024 23:24 | 1111549 | ||
| BLTA2_TS_DEWT_082017.nc | 05-Nov-2024 23:43 | 1111998 | ||
| BLTA2_TS_DEWT_082018.nc | 06-Nov-2024 00:11 | 1030071 | ||
| BLTA2_TS_DEWT_082019.nc | 06-Nov-2024 00:43 | 1111252 | ||
| BLTA2_TS_DEWT_082020.nc | 06-Nov-2024 01:13 | 5014323 | ||
| BLTA2_TS_DEWT_082021.nc | 06-Nov-2024 01:53 | 429002 | ||
| BLTA2_TS_DEWT_082022.nc | 06-Nov-2024 02:45 | 423921 | ||
| BLTA2_TS_DEWT_082023.nc | 06-Nov-2024 03:32 | 428737 | ||
| BLTA2_TS_DEWT_082024.nc | 09-Jan-2025 12:02 | 429777 | ||
| BLTA2_TS_DEWT_092008.nc | 05-Nov-2024 21:01 | 429434 | ||
| BLTA2_TS_DEWT_092009.nc | 05-Nov-2024 21:20 | 430236 | ||
| BLTA2_TS_DEWT_092010.nc | 05-Nov-2024 21:52 | 429937 | ||
| BLTA2_TS_DEWT_092011.nc | 05-Nov-2024 22:20 | 429914 | ||
| BLTA2_TS_DEWT_092012.nc | 05-Nov-2024 22:45 | 609049 | ||
| BLTA2_TS_DEWT_092013.nc | 05-Nov-2024 23:00 | 901912 | ||
| BLTA2_TS_DEWT_092014.nc | 05-Nov-2024 23:26 | 902188 | ||
| BLTA2_TS_DEWT_092017.nc | 05-Nov-2024 23:44 | 1264177 | ||
| BLTA2_TS_DEWT_092018.nc | 06-Nov-2024 00:13 | 1266308 | ||
| BLTA2_TS_DEWT_092019.nc | 06-Nov-2024 00:46 | 1112700 | ||
| BLTA2_TS_DEWT_092020.nc | 06-Nov-2024 01:16 | 1260267 | ||
| BLTA2_TS_DEWT_092021.nc | 06-Nov-2024 01:58 | 1261871 | ||
| BLTA2_TS_DEWT_092022.nc | 06-Nov-2024 02:48 | 1265351 | ||
| BLTA2_TS_DEWT_092023.nc | 06-Nov-2024 03:38 | 641739 | ||
| BLTA2_TS_DEWT_092024.nc | 11-Jan-2025 02:30 | 1268394 | ||
| BLTA2_TS_DEWT_102008.nc | 05-Nov-2024 21:03 | 4771413 | ||
| BLTA2_TS_DEWT_102009.nc | 05-Nov-2024 21:22 | 428638 | ||
| BLTA2_TS_DEWT_102010.nc | 05-Nov-2024 21:56 | 429455 | ||
| BLTA2_TS_DEWT_102011.nc | 05-Nov-2024 22:22 | 429439 | ||
| BLTA2_TS_DEWT_102012.nc | 05-Nov-2024 22:46 | 431692 | ||
| BLTA2_TS_DEWT_102013.nc | 05-Nov-2024 23:02 | 430178 | ||
| BLTA2_TS_DEWT_102014.nc | 05-Nov-2024 23:29 | 430031 | ||
| BLTA2_TS_DEWT_102017.nc | 05-Nov-2024 23:47 | 429428 | ||
| BLTA2_TS_DEWT_102018.nc | 06-Nov-2024 00:15 | 607394 | ||
| BLTA2_TS_DEWT_102019.nc | 06-Nov-2024 00:49 | 902359 | ||
| BLTA2_TS_DEWT_102020.nc | 06-Nov-2024 01:18 | 902794 | ||
| BLTA2_TS_DEWT_102021.nc | 06-Nov-2024 02:03 | 1263641 | ||
| BLTA2_TS_DEWT_102022.nc | 06-Nov-2024 02:52 | 1110909 | ||
| BLTA2_TS_DEWT_102023.nc | 06-Nov-2024 03:43 | 1117138 | ||
| BLTA2_TS_DEWT_102024.nc | 11-Jan-2025 23:42 | 1264734 | ||
| BLTA2_TS_DEWT_112007.nc | 05-Nov-2024 20:44 | 1266408 | ||
| BLTA2_TS_DEWT_112008.nc | 05-Nov-2024 21:05 | 1264793 | ||
| BLTA2_TS_DEWT_112009.nc | 05-Nov-2024 21:24 | 1116075 | ||
| BLTA2_TS_DEWT_112010.nc | 05-Nov-2024 21:59 | 1263984 | ||
| BLTA2_TS_DEWT_112011.nc | 05-Nov-2024 22:25 | 4462918 | ||
| BLTA2_TS_DEWT_112012.nc | 05-Nov-2024 22:48 | 424067 | ||
| BLTA2_TS_DEWT_112013.nc | 05-Nov-2024 23:03 | 429214 | ||
| BLTA2_TS_DEWT_112017.nc | 05-Nov-2024 23:50 | 429396 | ||
| BLTA2_TS_DEWT_112018.nc | 06-Nov-2024 00:18 | 429964 | ||
| BLTA2_TS_DEWT_112019.nc | 06-Nov-2024 00:52 | 429240 | ||
| BLTA2_TS_DEWT_112020.nc | 06-Nov-2024 01:21 | 429518 | ||
| BLTA2_TS_DEWT_112021.nc | 06-Nov-2024 02:07 | 428816 | ||
| BLTA2_TS_DEWT_112022.nc | 06-Nov-2024 02:56 | 606756 | ||
| BLTA2_TS_DEWT_112023.nc | 06-Nov-2024 03:48 | 605834 | ||
| BLTA2_TS_DEWT_122007.nc | 05-Nov-2024 20:46 | 608431 | ||
| BLTA2_TS_DEWT_122008.nc | 05-Nov-2024 21:07 | 1111047 | ||
| BLTA2_TS_DEWT_122009.nc | 05-Nov-2024 21:27 | 1110384 | ||
| BLTA2_TS_DEWT_122010.nc | 05-Nov-2024 22:01 | 1111512 | ||
| BLTA2_TS_DEWT_122011.nc | 05-Nov-2024 22:27 | 1109354 | ||
| BLTA2_TS_DEWT_122012.nc | 05-Nov-2024 22:49 | 1113102 | ||
| BLTA2_TS_DEWT_122013.nc | 05-Nov-2024 23:05 | 685768 | ||
| BLTA2_TS_DEWT_122017.nc | 05-Nov-2024 23:53 | 1111113 | ||
| BLTA2_TS_DEWT_122018.nc | 06-Nov-2024 00:22 | 1112135 | ||
| BLTA2_TS_DEWT_122019.nc | 06-Nov-2024 00:54 | 4821853 | ||
| BLTA2_TS_DEWT_122020.nc | 06-Nov-2024 01:24 | 429502 | ||
| BLTA2_TS_DEWT_122021.nc | 06-Nov-2024 02:11 | 429163 | ||
| BLTA2_TS_DEWT_122022.nc | 06-Nov-2024 03:00 | 429495 | ||
| BLTA2_TS_DEWT_122023.nc | 06-Nov-2024 03:52 | 429533 | ||